EW5663 Weather Reports


time (UTC)temp
C
wind
direction
speed
KPH
gust
KPH
rain 1hr
cm
rain 24hr
cm
rain mn
cm
humidity
%
barometer
mb
20260906220006 33 80 3.2 14.5 0.00 0.00 0.00 29 991.7
20260906214503 33 80 3.2 14.5 0.00 0.00 0.00 29 992.0
20260906213101 32 335 1.6 16.1 0.00 0.00 0.00 31 992.2
20260906211602 32 359 4.8 17.7 0.00 0.00 0.00 30 992.4
20260906210105 32 121 9.7 16.1 0.00 0.00 0.00 29 992.7
20260906204601 32 359 1.6 12.9 0.00 0.00 0.00 30 992.8
20260906203100 32 127 3.2 19.3 0.00 0.00 0.00 30 993.1
20260906201549 32 39 1.6 11.3 0.00 0.00 0.00 31 993.2
20260906200046 31 285 3.2 9.7 0.00 0.00 0.00 32 993.5
20260906194542 31 64 0.0 8.0 0.00 0.00 0.00 32 993.7
20260906193041 30 323 4.8 12.9 0.00 0.00 0.00 35 994.0
20260906191536 30 112 1.6 9.7 0.00 0.00 0.00 35 994.2
20260906190034 29 104 1.6 9.7 0.00 0.00 0.00 36 994.3
20260906184530 29 100 0.0 9.7 0.00 0.00 0.00 37 994.7
20260906183026 28 114 3.2 9.7 0.00 0.00 0.00 39 995.1
20260906181536 28 27 1.6 11.3 0.00 0.00 0.00 41 995.4
20260906180033 27 359 3.2 11.3 0.00 0.00 0.00 43 995.6
20260906174516 27 14 1.6 8.0 0.00 0.00 0.00 43 995.9
20260906173013 26 32 0.0 8.0 0.00 0.00 0.00 46 996.3
20260906171510 25 239 0.0 12.9 0.00 0.00 0.00 48 996.5
20260906170007 25 15 3.2 12.9 0.00 0.00 0.00 51 996.9
20260906164505 23 349 1.6 9.7 0.00 0.00 0.00 54 997.0
20260906163005 24 350 0.0 8.0 0.00 0.00 0.00 54 997.0
20260906161502 23 342 3.2 9.7 0.00 0.00 0.00 57 996.9
20260906160100 23 354 0.0 3.2 0.00 0.00 0.00 60 997.0
20260906154558 22 344 1.6 8.0 0.00 0.00 0.00 64 996.9
20260906153058 21 335 1.6 4.8 0.00 0.00 0.00 67 997.0
20260906151602 20 259 0.0 9.7 0.00 0.00 0.00 70 997.2
20260906150110 20 262 0.0 8.0 0.00 0.00 0.00 72 997.2
20260906144556 19 326 1.6 8.0 0.00 0.00 0.00 73 997.1
20260906143057 18 257 1.6 8.0 0.00 0.00 0.00 74 997.1
20260906141556 18 264 1.6 6.4 0.00 0.00 0.00 76 997.2
20260906140100 17 267 1.6 8.0 0.00 0.00 0.00 78 997.3
20260906134553 17 209 0.0 3.2 0.00 0.00 0.00 81 997.3
20260906133112 16 208 0.0 3.2 0.00 0.00 0.00 82 997.1
20260906131550 15 160 0.0 0.0 0.00 0.00 0.00 82 997.1
20260906130105 15 160 0.0 0.0 0.00 0.00 0.00 80 996.9
20260906124547 15 160 0.0 0.0 0.00 0.00 0.00 79 996.7
20260906123046 15 160 0.0 0.0 0.00 0.00 0.00 78 996.7
20260906121545 15 160 0.0 0.0 0.00 0.00 0.00 75 996.8
20260906120043 15 160 0.0 0.0 0.00 0.00 0.00 73 996.8
20260906114547 16 160 0.0 0.0 0.00 0.00 0.00 72 996.8
20260906113041 16 160 0.0 0.0 0.00 0.00 0.00 71 996.7
20260906111545 16 160 0.0 0.0 0.00 0.00 0.00 69 996.5
20260906110035 16 160 0.0 0.0 0.00 0.00 0.00 68 996.4
20260906104534 17 160 0.0 1.6 0.00 0.00 0.00 66 996.3
20260906103029 17 159 0.0 0.0 0.00 0.00 0.00 66 995.9
20260906101528 17 160 0.0 0.0 0.00 0.00 0.00 64 995.9
20260906100035 17 159 0.0 0.0 0.00 0.00 0.00 63 996.1
20260906094529 17 160 0.0 1.6 0.00 0.00 0.00 63 996.0
20260906093028 17 159 0.0 0.0 0.00 0.00 0.00 64 995.8
20260906091525 18 159 0.0 0.0 0.00 0.00 0.00 63 995.8
20260906090018 18 159 0.0 0.0 0.00 0.00 0.00 60 995.7
20260906084515 19 159 0.0 0.0 0.00 0.00 0.00 58 995.5
20260906083012 20 160 0.0 0.0 0.00 0.00 0.00 56 995.5
20260906081512 20 159 0.0 0.0 0.00 0.00 0.00 54 995.7
20260906080007 20 159 0.0 1.6 0.00 0.00 0.00 53 995.8
20260906074506 20 174 0.0 8.0 0.00 0.00 0.00 53 995.5
20260906073004 21 249 0.0 3.2 0.00 0.00 0.00 52 995.3
20260906071502 21 162 0.0 6.4 0.00 0.00 0.00 51 995.3
20260906070100 21 208 0.0 3.2 0.00 0.00 0.00 50 995.2
20260906064555 22 262 0.0 6.4 0.00 0.00 0.00 47 995.1
20260906063052 22 268 3.2 11.3 0.00 0.00 0.00 45 995.3
20260906061549 23 157 0.0 0.0 0.00 0.00 0.00 43 995.6
20260906060045 23 147 0.0 6.4 0.00 0.00 0.00 40 995.9
20260906054557 23 253 0.0 3.2 0.00 0.00 0.00 40 996.2
20260906053044 23 258 4.8 11.3 0.00 0.00 0.00 39 995.9
20260906051603 23 260 0.0 6.4 0.00 0.00 0.00 40 996.1
20260906050045 23 218 1.6 6.4 0.00 0.00 0.00 40 995.9
20260906044550 23 150 0.0 0.0 0.00 0.00 0.00 37 996.0
20260906043045 24 150 0.0 3.2 0.00 0.00 0.00 36 996.1
20260906041540 24 155 0.0 3.2 0.00 0.00 0.00 35 996.0
20260906040116 23 62 0.0 9.7 0.00 0.00 0.00 38 995.7
20260906034538 22 66 0.0 0.0 0.00 0.00 0.00 41 994.8
20260906033051 23 66 0.0 0.0 0.00 0.00 0.00 38 994.7
20260906031537 23 65 0.0 1.6 0.00 0.00 0.00 37 994.6
20260906030038 24 66 0.0 1.6 0.00 0.00 0.00 36 994.2
20260906024536 24 66 0.0 0.0 0.00 0.00 0.00 35 994.0
20260906023036 25 66 0.0 0.0 0.00 0.00 0.00 34 993.9
20260906021536 26 66 0.0 0.0 0.00 0.00 0.00 32 993.9
20260906020036 26 66 0.0 1.6 0.00 0.00 0.00 31 993.7
20260906014535 26 359 1.6 8.0 0.00 0.00 0.00 30 993.4
20260906013035 27 359 0.0 0.0 0.00 0.00 0.00 29 993.0
20260906011534 28 359 0.0 0.0 0.00 0.00 0.00 27 992.9
20260906010034 29 359 0.0 0.0 0.00 0.00 0.00 26 992.9
20260906004532 30 359 0.0 0.0 0.00 0.00 0.00 24 993.0
20260906003032 31 359 0.0 6.4 0.00 0.00 0.00 23 993.0
20260906001534 31 359 0.0 8.0 0.00 0.00 0.00 22 992.9
20260906000032 31 354 1.6 11.3 0.00 0.00 0.00 22 992.7
20260905234531 31 4 0.0 1.6 0.00 0.00 0.00 20 992.8
20260905233031 31 8 3.2 11.3 0.00 0.00 0.00 21 992.7
20260905231531 32 344 1.6 11.3 0.00 0.00 0.00 20 992.6
20260905230029 32 354 1.6 12.9 0.00 0.00 0.00 21 992.7
20260905224603 32 243 1.6 12.9 0.00 0.00 0.00 21 992.6
20260905223024 33 247 4.8 12.9 0.00 0.00 0.00 19 992.6
20260905221522 33 359 0.0 8.0 0.00 0.00 0.00 19 992.7